GW3329 Weather Reports


time (UTC)temp
F
wind
direction
speed
knots
gust
knots
rain 1hr
in
rain 24hr
in
rain mn
in
humidity
%
barometer
mb
20260505225856 64 228 2.6 3.5 0.00 0.00 0.00 62 1017.6
20260505225354 64 271 3.5 7.0 0.00 0.00 0.00 62 1017.7
20260505224849 64 41 1.7 5.2 0.00 0.00 0.00 61 1017.6
20260505224347 64 245 5.2 8.7 0.00 0.00 0.00 60 1018.0
20260505223844 66 314 3.5 7.8 0.00 0.00 0.00 56 1017.8
20260505223341 66 183 7.8 9.6 0.00 0.00 0.00 56 1017.7
20260505222836 68 331 1.7 3.5 0.00 0.00 0.00 54 1017.8
20260505222333 66 195 1.7 5.2 0.00 0.00 0.00 58 1017.9
20260505221830 65 274 6.1 7.0 0.00 0.00 0.00 58 1018.0
20260505221327 65 146 3.5 7.0 0.00 0.00 0.00 59 1017.9
20260505220824 65 169 3.5 7.8 0.00 0.00 0.00 60 1017.7
20260505220321 66 263 7.0 9.6 0.00 0.00 0.00 58 1017.9
20260505215819 65 272 1.7 6.1 0.00 0.00 0.00 61 1018.0
20260505215316 66 188 3.5 12.2 0.00 0.00 0.00 57 1018.0
20260505214814 65 188 2.6 7.0 0.00 0.00 0.00 56 1018.1
20260505214311 66 209 4.3 8.7 0.00 0.00 0.00 58 1018.2
20260505213808 65 248 3.5 12.2 0.00 0.00 0.00 57 1018.2
20260505213306 66 219 5.2 6.1 0.00 0.00 0.00 56 1018.3
20260505212801 68 253 6.1 9.6 0.00 0.00 0.00 54 1018.0
20260505212259 66 274 0.9 7.8 0.00 0.00 0.00 55 1018.3
20260505211755 67 224 5.2 13.9 0.00 0.00 0.00 54 1018.0
20260505211253 67 183 4.3 7.0 0.00 0.00 0.00 53 1018.0
20260505210749 67 211 4.3 9.6 0.00 0.00 0.00 52 1018.0
20260505210246 68 310 3.5 7.0 0.00 0.00 0.00 53 1018.2
20260505205743 67 322 2.6 7.0 0.00 0.00 0.00 52 1018.2
20260505205242 66 233 6.1 12.2 0.00 0.00 0.00 53 1018.1
20260505204738 66 213 3.5 12.2 0.00 0.00 0.00 54 1018.2
20260505204236 66 241 3.5 9.6 0.00 0.00 0.00 55 1018.0
20260505203733 66 163 0.9 5.2 0.00 0.00 0.00 54 1018.1
20260505203230 66 163 3.5 7.8 0.00 0.00 0.00 53 1018.2
20260505202725 67 278 3.5 6.1 0.00 0.00 0.00 52 1018.1
20260505202222 67 180 2.6 6.1 0.00 0.00 0.00 52 1018.1
20260505201718 68 193 2.6 3.5 0.00 0.00 0.00 50 1018.0
20260505201216 68 182 2.6 3.5 0.00 0.00 0.00 50 1017.8
20260505200714 68 136 2.6 6.1 0.00 0.00 0.00 50 1018.2
20260505200211 67 162 1.7 7.0 0.00 0.00 0.00 54 1018.0
20260505195706 66 262 3.5 7.0 0.00 0.00 0.00 55 1018.1
20260505195204 66 263 1.7 5.2 0.00 0.00 0.00 53 1018.2
20260505194701 68 153 1.7 5.2 0.00 0.00 0.00 51 1018.3
20260505194156 67 185 1.7 8.7 0.00 0.00 0.00 53 1018.2
20260505193648 66 189 7.0 8.7 0.00 0.00 0.00 54 1018.1
20260505193145 68 213 2.6 12.2 0.00 0.00 0.00 54 1018.2
20260505192644 69 124 4.3 11.3 0.00 0.00 0.00 51 1018.5
20260505192141 68 161 0.9 5.2 0.00 0.00 0.00 54 1018.2
20260505191639 67 280 4.3 8.7 0.00 0.00 0.00 55 1018.1
20260505191137 68 208 1.7 7.0 0.00 0.00 0.00 54 1018.3
20260505190633 69 197 3.5 5.2 0.00 0.00 0.00 52 1018.2
20260505190132 67 222 2.6 5.2 0.00 0.00 0.00 55 1018.1
20260505185630 69 151 0.9 2.6 0.00 0.00 0.00 55 1018.3
20260505185126 69 183 1.7 2.6 0.00 0.00 0.00 53 1018.0
20260505184623 68 206 0.9 2.6 0.00 0.00 0.00 54 1018.3
20260505184120 67 11 0.9 3.5 0.00 0.00 0.00 56 1018.0
20260505183616 67 221 0.9 5.2 0.00 0.00 0.00 57 1018.3
20260505183114 66 248 3.5 5.2 0.00 0.00 0.00 57 1018.2
20260505182610 66 279 4.3 7.0 0.00 0.00 0.00 56 1018.3
20260505182107 66 106 0.9 3.5 0.00 0.00 0.00 58 1018.3
20260505181604 67 272 2.6 5.2 0.00 0.00 0.00 57 1018.2
20260505181101 66 236 2.6 6.1 0.00 0.00 0.00 59 1018.3
20260505180556 66 269 2.6 3.5 0.00 0.00 0.00 57 1017.9
20260505180055 66 243 5.2 7.0 0.00 0.00 0.00 61 1018.2
20260505175550 65 291 1.7 5.2 0.00 0.00 0.00 60 1018.2
20260505175047 65 327 0.9 3.5 0.00 0.00 0.00 59 1018.1
20260505174544 64 161 0.9 1.7 0.00 0.00 0.00 58 1018.0
20260505174040 65 40 1.7 2.6 0.00 0.00 0.00 59 1018.2
20260505173537 65 232 1.7 2.6 0.00 0.00 0.00 57 1018.1
20260505173033 64 182 1.7 6.1 0.00 0.00 0.00 57 1018.1
20260505172531 65 208 4.3 6.1 0.00 0.00 0.00 56 1018.1
20260505172027 64 216 0.0 6.1 0.00 0.00 0.00 58 1018.1
20260505171522 65 242 0.9 3.5 0.00 0.00 0.00 57 1018.0
20260505171020 64 94 0.0 0.9 0.00 0.00 0.00 60 1017.9
20260505170516 63 88 0.0 0.9 0.00 0.00 0.00 59 1017.9
20260505170013 63 121 0.0 0.9 0.00 0.00 0.00 60 1017.8
20260505165508 64 30 0.9 2.6 0.00 0.00 0.00 55 1017.8
20260505165004 64 283 4.3 6.1 0.00 0.00 0.00 56 1017.8
20260505164500 63 106 0.9 0.9 0.00 0.00 0.00 65 1018.0
20260505163958 62 82 0.0 0.9 0.00 0.00 0.00 66 1017.8
20260505163456 62 194 0.9 1.7 0.00 0.00 0.00 66 1017.8
20260505162956 62 200 0.0 0.9 0.00 0.00 0.00 66 1017.8
20260505162451 61 156 0.9 3.5 0.00 0.00 0.00 69 1017.9
20260505161948 61 244 0.0 1.7 0.00 0.00 0.00 68 1017.7
20260505161445 60 182 0.0 0.9 0.00 0.00 0.00 69 1017.7
20260505160942 60 145 0.9 2.6 0.00 0.00 0.00 67 1017.9
20260505160440 59 156 0.9 1.7 0.00 0.00 0.00 71 1017.5
20260505152916 57 212 0.9 0.9 0.00 0.00 0.00 81 1017.7
20260505152413 56 187 0.0 1.7 0.00 0.00 0.00 83 1017.8
20260505151908 57 146 0.0 0.9 0.00 0.00 0.00 82 1017.5
20260505151404 58 200 0.9 1.7 0.00 0.00 0.00 80 1017.6
20260505150901 58 61 0.0 3.5 0.00 0.00 0.00 81 1017.6
20260505150359 58 171 0.9 1.7 0.00 0.00 0.00 81 1017.5
20260505140323 51 171 0.0 0.0 0.00 0.00 0.00 95 1017.4
20260505130246 48 177 0.0 0.0 0.00 0.00 0.00 96 1017.1
20260505124736 48 177 0.0 0.0 0.00 0.00 0.00 96 1017.1
20260505124233 49 177 0.0 0.0 0.00 0.00 0.00 96 1017.3
20260505123729 49 177 0.0 0.0 0.00 0.00 0.00 96 1017.2
20260505123226 50 177 0.0 0.0 0.00 0.00 0.00 96 1017.0
20260505122723 50 177 0.0 0.0 0.00 0.00 0.00 96 1017.1
20260505122220 49 177 0.0 0.0 0.00 0.00 0.00 96 1017.2
20260505121716 49 177 0.0 0.0 0.00 0.00 0.00 96 1017.1
20260505121213 49 177 0.0 0.0 0.00 0.00 0.00 96 1017.1
20260505120710 49 177 0.0 0.0 0.00 0.00 0.00 96 1017.3
20260505120205 49 178 0.0 0.0 0.00 0.00 0.00 96 1017.1
20260505115659 49 178 0.0 0.0 0.00 0.00 0.00 95 1017.1
20260505115157 49 178 0.0 0.0 0.00 0.00 0.00 95 1017.1
20260505114654 50 179 0.0 0.0 0.00 0.00 0.00 95 1017.4
20260505114150 50 179 0.0 0.0 0.00 0.00 0.00 96 1017.1
20260505113647 50 179 0.0 0.0 0.00 0.00 0.00 95 1017.2
20260505113143 50 187 0.0 0.0 0.00 0.00 0.00 95 1017.0
20260505112640 50 185 0.0 0.0 0.00 0.00 0.00 95 1017.1
20260505112138 50 195 0.0 0.0 0.00 0.00 0.00 95 1017.3
20260505111637 51 207 0.0 0.0 0.00 0.00 0.00 95 1017.2
20260505111133 51 209 0.0 0.0 0.00 0.00 0.00 95 1017.3
20260505110630 51 208 0.0 0.0 0.00 0.00 0.00 95 1017.2
20260505110127 51 207 0.0 0.0 0.00 0.00 0.00 95 1017.2
20260505102103 52 213 0.0 0.0 0.00 0.00 0.00 93 1017.1
20260505101601 52 213 0.0 0.0 0.00 0.00 0.00 93 1017.3
20260505101057 52 214 0.0 0.0 0.00 0.00 0.00 93 1017.2
20260505100554 52 214 0.0 0.0 0.00 0.00 0.00 93 1017.1
20260505100050 52 214 0.0 0.0 0.00 0.00 0.00 92 1017.5
20260505095547 53 214 0.0 0.0 0.00 0.00 0.00 92 1017.4
20260505095043 53 183 0.0 0.0 0.00 0.00 0.00 92 1017.4
20260505094540 53 183 0.0 0.0 0.00 0.00 0.00 92 1017.3
20260505094036 53 181 0.0 0.0 0.00 0.00 0.00 92 1017.4
20260505093533 53 129 0.0 0.0 0.00 0.00 0.00 91 1017.5
20260505093030 53 129 0.0 0.0 0.00 0.00 0.00 91 1017.7
20260505092527 53 173 0.0 0.0 0.00 0.00 0.00 91 1017.5
20260505092026 53 174 0.0 0.0 0.00 0.00 0.00 91 1017.5
20260505091522 53 170 0.0 0.0 0.00 0.00 0.00 91 1017.6
20260505091020 53 172 0.0 0.0 0.00 0.00 0.00 90 1017.9
20260505090518 53 183 0.0 0.0 0.00 0.00 0.00 90 1017.9
20260505090016 53 178 0.0 0.0 0.00 0.00 0.00 90 1017.9
20260505085514 53 167 0.0 0.0 0.00 0.00 0.00 89 1018.0
20260505085011 53 167 0.0 0.0 0.00 0.00 0.00 89 1018.2
20260505084509 53 166 0.0 0.0 0.00 0.00 0.00 88 1018.1
20260505084007 53 182 0.0 0.0 0.00 0.00 0.00 88 1018.1
20260505083504 53 189 0.0 0.0 0.00 0.00 0.00 88 1017.9
20260505083000 54 189 0.0 0.0 0.00 0.00 0.00 87 1018.2
20260505082456 54 181 0.0 0.0 0.00 0.00 0.00 88 1018.4
20260505081953 54 182 0.0 0.0 0.00 0.00 0.00 87 1018.2
20260505081450 54 182 0.0 0.0 0.00 0.00 0.00 87 1018.4
20260505080946 54 185 0.0 0.0 0.00 0.00 0.00 87 1018.4
20260505080443 54 172 0.0 0.0 0.00 0.00 0.00 87 1018.2
20260505075938 54 170 0.0 0.0 0.00 0.00 0.00 88 1018.3
20260505075435 54 158 0.0 0.0 0.00 0.00 0.00 88 1018.6
20260505074933 54 159 0.0 0.0 0.00 0.00 0.00 88 1018.5
20260505074430 54 170 0.0 0.9 0.00 0.00 0.00 87 1018.5
20260505073927 54 170 0.0 0.0 0.00 0.00 0.00 87 1018.5
20260505073425 54 164 0.0 0.0 0.00 0.00 0.00 87 1018.4
20260505072921 55 165 0.0 0.9 0.00 0.00 0.00 86 1018.7
20260505072417 55 156 0.0 0.0 0.00 0.00 0.00 85 1018.7
20260505071914 55 167 0.0 0.0 0.00 0.00 0.00 84 1018.6
20260505071410 55 192 0.0 0.0 0.00 0.00 0.00 84 1018.3
20260505070908 55 168 0.0 0.0 0.00 0.00 0.00 84 1018.7
20260505070404 55 170 0.0 0.9 0.00 0.00 0.00 84 1018.6
20260505065900 55 174 0.9 1.7 0.00 0.00 0.00 84 1018.5
20260505065357 55 175 0.0 0.9 0.00 0.00 0.00 84 1018.6
20260505064854 55 171 0.0 0.9 0.00 0.00 0.00 85 1018.6
20260505064351 55 194 1.7 2.6 0.00 0.00 0.00 85 1018.8
20260505063850 55 200 0.0 0.9 0.00 0.00 0.00 85 1018.7
20260505063345 55 161 0.0 0.0 0.00 0.00 0.00 85 1018.4
20260505062842 55 190 0.9 1.7 0.00 0.00 0.00 84 1018.5
20260505062339 55 171 0.0 0.9 0.00 0.00 0.00 83 1018.5
20260505061836 55 184 0.9 1.7 0.00 0.00 0.00 82 1018.5
20260505061334 55 174 1.7 3.5 0.00 0.00 0.00 81 1018.9
20260505060831 55 171 0.9 0.9 0.00 0.00 0.00 84 1018.7
20260505060328 55 184 0.9 1.7 0.00 0.00 0.00 84 1018.7
20260505055824 55 172 1.7 1.7 0.00 0.00 0.00 85 1018.6
20260505055320 55 174 0.0 0.9 0.00 0.00 0.00 86 1018.6
20260505054817 55 192 3.5 5.2 0.00 0.00 0.00 86 1018.8
20260505054314 55 207 0.9 0.9 0.00 0.00 0.00 85 1018.8
20260505053813 55 159 0.0 0.9 0.00 0.00 0.00 86 1018.9
20260505053309 55 169 0.0 0.0 0.00 0.00 0.00 87 1018.8
20260505052806 55 149 0.0 1.7 0.00 0.00 0.00 86 1018.8
20260505052304 55 156 0.0 2.6 0.00 0.00 0.00 86 1018.9
20260505051800 55 167 0.0 0.9 0.00 0.00 0.00 85 1019.0
20260505051258 55 171 0.0 0.9 0.00 0.00 0.00 84 1018.9
20260505050756 55 359 0.0 0.9 0.00 0.00 0.00 84 1019.0
20260505050254 55 309 0.9 1.7 0.00 0.00 0.00 84 1018.7
20260505041729 56 207 1.7 3.5 0.00 0.00 0.00 87 1018.5
20260505041226 56 177 0.9 3.5 0.00 0.00 0.00 87 1018.7
20260505040723 56 243 2.6 3.5 0.00 0.00 0.00 87 1018.5
20260505040220 56 167 0.0 2.6 0.00 0.00 0.00 87 1018.8
20260505035717 56 177 0.9 3.5 0.00 0.00 0.00 86 1018.7
20260505035213 56 160 0.9 3.5 0.00 0.00 0.00 85 1018.7
20260505034710 56 151 0.0 1.7 0.00 0.00 0.00 85 1018.7
20260505034207 56 86 0.0 0.9 0.00 0.00 0.00 84 1018.7
20260505033703 56 162 1.7 5.2 0.00 0.00 0.00 84 1018.7
20260505033201 56 249 1.7 3.5 0.00 0.00 0.00 84 1018.5
20260505032659 56 171 0.0 1.7 0.00 0.00 0.00 84 1018.5
20260505032155 56 147 0.9 1.7 0.00 0.00 0.00 83 1018.3
20260505031652 57 192 0.9 1.7 0.00 0.00 0.00 83 1018.5
20260505031149 57 176 1.7 2.6 0.00 0.00 0.00 83 1018.2
20260505030646 57 220 1.7 2.6 0.00 0.00 0.00 83 1018.3
20260505030141 57 217 1.7 2.6 0.00 0.00 0.00 83 1018.3
20260505025637 57 234 0.9 2.6 0.00 0.00 0.00 83 1018.3
20260505025136 57 296 1.7 2.6 0.00 0.00 0.00 83 1018.3
20260505024633 57 221 1.7 2.6 0.00 0.00 0.00 82 1018.3
20260505024130 57 166 0.9 1.7 0.00 0.00 0.00 82 1018.4
20260505023628 57 180 0.9 1.7 0.00 0.00 0.00 81 1018.3
20260505023125 57 266 1.7 3.5 0.00 0.00 0.00 81 1018.0
20260505022623 57 331 1.7 3.5 0.00 0.00 0.00 81 1018.0
20260505022119 58 176 0.9 2.6 0.00 0.00 0.00 80 1018.2
20260505021616 57 153 3.5 3.5 0.00 0.00 0.00 80 1018.0
20260505021113 58 248 2.6 5.2 0.00 0.00 0.00 79 1018.3
20260505020608 58 157 2.6 5.2 0.00 0.00 0.00 79 1018.4
20260505020105 58 183 1.7 7.0 0.00 0.00 0.00 80 1018.1
20260505015602 59 133 0.0 1.7 0.00 0.00 0.00 79 1018.2
20260505015058 59 167 0.9 5.2 0.00 0.00 0.00 80 1018.5
20260505014555 59 167 0.9 2.6 0.00 0.00 0.00 79 1018.3
20260505014052 59 169 1.7 3.5 0.00 0.00 0.00 78 1018.3
20260505013549 59 197 3.5 6.1 0.00 0.00 0.00 78 1018.2
20260505013047 59 166 0.9 6.1 0.00 0.00 0.00 76 1018.3
20260505012545 60 273 3.5 7.0 0.00 0.00 0.00 75 1018.5
20260505012042 59 227 2.6 7.0 0.00 0.00 0.00 75 1018.4
20260505011537 60 146 3.5 7.0 0.00 0.00 0.00 73 1018.3
20260505011035 60 270 1.7 2.6 0.00 0.00 0.00 74 1018.4
20260505010530 60 211 1.7 6.1 0.00 0.00 0.00 74 1018.4
20260505010027 60 251 0.9 7.0 0.00 0.00 0.00 74 1018.6
20260505005523 59 196 1.7 7.0 0.00 0.00 0.00 75 1018.6
20260505005021 60 220 4.3 7.8 0.00 0.00 0.00 73 1018.5
20260505004517 60 262 2.6 7.8 0.00 0.00 0.00 73 1018.6
20260505004014 60 172 3.5 6.1 0.00 0.00 0.00 73 1018.7
20260505003511 60 290 4.3 6.1 0.00 0.00 0.00 71 1018.6
20260505003009 60 120 2.6 7.8 0.00 0.00 0.00 71 1018.5
20260505002503 60 229 3.5 7.0 0.00 0.00 0.00 69 1018.7
20260505002003 60 170 3.5 8.7 0.00 0.00 0.00 69 1018.5
20260505001500 61 127 1.7 5.2 0.00 0.00 0.00 67 1018.7
20260505000956 62 148 3.5 5.2 0.00 0.00 0.00 65 1018.4
20260505000454 63 253 3.5 5.2 0.00 0.00 0.00 64 1018.3
20260504235951 62 232 4.3 7.8 0.00 0.00 0.00 64 1018.3
20260504235448 63 182 1.7 6.1 0.00 0.00 0.00 63 1018.4
20260504234945 62 164 0.9 7.8 0.00 0.00 0.00 64 1018.4
20260504234442 62 201 1.7 5.2 0.00 0.00 0.00 65 1018.3
20260504233938 63 348 3.5 8.7 0.00 0.00 0.00 66 1018.4
20260504233434 62 136 0.9 3.5 0.00 0.00 0.00 66 1018.3
20260504232931 63 187 2.6 8.7 0.00 0.00 0.00 64 1018.4
20260504232428 64 282 2.6 7.8 0.00 0.00 0.00 64 1018.3
20260504231925 64 165 3.5 6.1 0.00 0.00 0.00 62 1018.1
20260504231421 64 323 3.5 8.7 0.00 0.00 0.00 63 1018.2
20260504230918 64 164 3.5 7.0 0.00 0.00 0.00 63 1018.3
20260504230415 64 136 5.2 8.7 0.00 0.00 0.00 65 1018.4